Location: Bo?a Wola
(50.4192°N, 19.7966°E)
Time: 16:39:11
(UTC+00:00)

H-2A R/B - Visible Passes

Search period start: 08 September 2024 00:00
Search period end: 18 September 2024 00:00
Orbit: 550 x 565 km, 98.1° (Epoch: 08 September)

Date Brightness Start Highest point End Pass type
(mag) Time Alt. Az. Time Alt. Az. Time Alt. Az.
08 Sep 5.0 00:28:50 10° NNE 00:31:30 30° ENE 00:31:30 30° ENE visible
08 Sep 4.6 02:03:56 10° N 02:07:13 25° WNW 02:07:21 25° WNW visible
09 Sep 5.2 00:26:51 10° NNE 00:29:23 28° ENE 00:29:23 28° ENE visible
09 Sep 4.6 02:01:53 10° N 02:05:14 26° WNW 02:05:14 26° WNW visible
10 Sep 5.3 00:24:51 10° NNE 00:27:14 26° ENE 00:27:14 26° ENE visible
10 Sep 4.5 01:59:49 10° N 02:03:05 27° WNW 02:03:05 27° WNW visible
11 Sep 5.4 00:22:49 10° NNE 00:25:03 25° ENE 00:25:03 25° ENE visible
11 Sep 4.5 01:57:42 10° N 02:00:54 28° WNW 02:00:54 28° WNW visible
12 Sep 5.5 00:20:46 10° NE 00:22:50 23° ENE 00:22:50 23° ENE visible
12 Sep 4.5 01:55:35 10° N 01:58:41 29° NW 01:58:41 29° NW visible
13 Sep 5.7 00:18:40 10° NE 00:20:35 21° ENE 00:20:35 21° ENE visible
13 Sep 4.5 01:53:24 10° N 01:56:26 30° NW 01:56:26 30° NW visible
14 Sep 5.8 00:16:34 10° NE 00:18:18 20° ENE 00:18:18 20° ENE visible
14 Sep 4.4 01:51:13 10° N 01:54:09 31° NW 01:54:09 31° NW visible
15 Sep 5.9 00:14:25 10° NE 00:16:00 18° ENE 00:16:00 18° ENE visible
15 Sep 4.5 01:48:59 10° N 01:51:50 32° NW 01:51:50 32° NW visible
16 Sep 6.0 00:12:14 10° NE 00:13:39 17° ENE 00:13:39 17° ENE visible
16 Sep 4.5 01:46:44 10° N 01:49:29 32° NW 01:49:29 32° NW visible
17 Sep 6.1 00:10:03 10° NE 00:11:16 16° NE 00:11:16 16° NE visible
17 Sep 4.5 01:44:27 10° N 01:47:07 32° NNW 01:47:07 32° NNW visible
